Flag for Liberia Weather past 2 weeks in Gbarnga, Liberia

Now
79 °F

Light rain. Partly sunny.


Feels Like: 83 °F
Forecast: N/A
Wind: 3 mph from Southwest

Location: Roberts Field

Current Time: Jul 7, 2015 at 7:55:06 PM

Latest Report: Jul 7, 2015 at 7:30 PM


Visibility: 5 mi

Pressure: 29.89 "Hg

Humidity: 94%

Dew point: 77 °F

Location of GbarngaLocation

Historic Weather in Gbarnga — Graph

°F

Gbarnga temperature yesterday

Maximum temperature yesterday: 79 °F (at 10:00 AM)
Minimum temperature yesterday: 75 °F (at 7:00 AM)
Average temperature yesterday: 77 °F

Past Weeks' High & Low Weather Summary

 TemperatureHumidityPressure
High86 °F (Jun 26, 12:30 PM)100% (Jun 23, 4:30 AM)30.12 "Hg (Jun 23, 4:30 AM)
Low73 °F (Jun 24, 4:30 AM)74% (Jun 25, 11:30 AM)29.86 "Hg (Jul 5, 4:00 PM)
Average78 °F91%29.98 "Hg
* Reported Jun 22 7:00 PM — Jul 7 7:00 PM, Gbarnga, Weather by CustomWeather, © 2015

Note: Actual official high and low records may vary slightly from our data, if they occured in-between our weather recording intervals... More about our weather records

Advertising

Gbarnga weather history for previous 24 hours

 ConditionsComfort  
Time TempWeatherWind HumidityBarometerVisibility
7:00 PM
Tue, Jul 7
81 °FPartly sunny.6 mph84%29.86 "HgN/A
3:00 PM84 °FPartly sunny.16 mph79%29.89 "HgN/A
2:30 PM86 °FPartly sunny.14 mph75%29.89 "HgN/A
2:00 PM84 °FPartly sunny.9 mph74%29.89 "HgN/A
1:00 PM84 °FPartly sunny.6 mph74%29.89 "HgN/A
12:30 PM84 °FPartly sunny.9 mph79%29.92 "HgN/A
12:00 PM82 °FPartly sunny.6 mph84%29.92 "HgN/A
11:30 AM82 °FPartly sunny.6 mph84%29.92 "HgN/A
11:00 AM81 °FPartly sunny.3 mph84%29.95 "HgN/A
10:30 AM81 °FPartly sunny.5 mph84%29.95 "HgN/A
10:00 AM81 °FPartly sunny.3 mph84%29.95 "HgN/A
9:30 AM79 °FPartly sunny.6 mph94%29.92 "HgN/A
9:00 AM79 °FPartly sunny.7 mph94%29.92 "HgN/A
8:30 AM77 °FPartly sunny.5 mph94%29.92 "HgN/A
8:00 AM77 °FPartly sunny.No wind94%29.92 "HgN/A
7:30 AM75 °FPassing clouds.No wind94%29.92 "HgN/A
7:00 AM75 °FPartly cloudy.No wind94%29.89 "Hg4 mi
6:30 AM75 °FRain. Mostly cloudy.No wind94%29.89 "Hg4 mi
6:00 AM75 °FLight rain. Partly cloudy.No wind94%29.89 "Hg5 mi
5:30 AM77 °FRain. Mostly cloudy.No wind94%29.89 "Hg2 mi
3:00 AM77 °FPassing clouds.3 mph94%29.89 "HgN/A
2:01 AM77 °FPassing clouds.3 mph94%29.89 "HgN/A
2:00 AM77 °FPassing clouds.3 mph94%29.89 "HgN/A
1:30 AM77 °FPassing clouds.No wind94%29.92 "HgN/A
1:00 AM77 °FPassing clouds.No wind94%29.92 "Hg5 mi
12:30 AM77 °FPassing clouds.No wind94%29.92 "Hg5 mi
12:00 AM77 °FPassing clouds.No wind94%29.95 "Hg5 mi
11:30 PM
Mon, Jul 6
77 °FPassing clouds.No wind94%29.95 "HgN/A
11:00 PM77 °FPassing clouds.No wind94%29.92 "HgN/A
10:30 PM77 °FPassing clouds.No wind94%29.92 "HgN/A
10:00 PM77 °FPassing clouds.No wind94%29.92 "HgN/A
9:30 PM77 °FPassing clouds.No wind94%29.92 "HgN/A
9:00 PM77 °FPartly cloudy.No wind94%29.92 "HgN/A
8:30 PM77 °FLight rain. Partly cloudy.5 mph94%29.92 "Hg5 mi
8:00 PM77 °FLight rain. Mostly cloudy.No wind94%29.89 "Hg4 mi
7:30 PM77 °FLight rain. Mostly cloudy.7 mph94%29.89 "Hg2 mi
7:00 PM77 °FRain. Mostly cloudy.8 mph94%29.86 "Hg2 mi
Weather by CustomWeather, © 2015

See weather overviewHow to use our weather pages